Location: Newark
(41.5729°N, 14.7036°E)
Time: 08:59:35
(UTC+00:00)

ISS - Visible Passes

Search period start: 24 September 2019 00:00
Search period end: 04 October 2019 00:00
Orbit: 411 x 421 km, 51.6° (Epoch: 24 September)

Date Brightness Start Highest point End Pass type
(mag) Time Alt. Az. Time Alt. Az. Time Alt. Az.
24 Sep -2.2 17:47:16 10° W 17:50:19 33° NNW 17:53:23 10° NE visible
24 Sep -0.8 19:25:46 10° NW 19:26:56 14° NNW 19:26:56 14° NNW visible
25 Sep -1.3 18:36:51 10° NW 18:39:07 17° N 18:40:24 14° NNE visible
26 Sep -1.5 17:47:53 10° WNW 17:50:25 20° NNW 17:52:59 10° NNE visible
26 Sep -0.6 19:26:08 10° NNW 19:26:42 12° NNW 19:26:42 12° NNW visible
27 Sep -1.3 18:37:26 10° NW 18:39:22 14° N 18:40:03 14° NNE visible
28 Sep -1.3 17:48:34 10° NW 17:50:37 15° N 17:52:41 10° NNE visible
28 Sep -0.5 19:25:56 10° NNW 19:26:16 11° NNW 19:26:16 11° NNW visible
29 Sep -1.4 18:37:28 10° NNW 18:39:34 16° N 18:39:34 16° N visible
30 Sep -1.3 17:48:53 10° NNW 17:50:51 15° N 17:52:48 10° NE visible
30 Sep -0.5 19:25:27 10° NW 19:25:45 12° NW 19:25:45 12° NW visible
01 Oct -1.7 18:37:03 10° NW 18:39:04 20° N 18:39:04 20° N visible
02 Oct -1.7 17:48:38 10° NNW 17:50:58 18° NNE 17:52:23 14° NE visible
02 Oct -0.4 19:24:57 10° NW 19:25:16 12° NW 19:25:16 12° NW visible
03 Oct -2.2 18:36:30 10° NW 18:38:37 29° NNW 18:38:37 29° NNW visible
